This demonstration page uses our WeatherBlox Daily Observations layout. Learn more.

39.29038, -76.61219

Hourly Observations for June 9, 2019

Temp ( °F °C ) Dew Point ( °F °C ) Humidity (%) Winds ( mph kmh ) Pressure ( in mb ) Visibility ( mi km ) Precip ( " mm )
12:54 am 00:54 undefined 71 21.7 55 12.8 57 57 undefined N/A 30.18 1022 N/A 0 0
1:54 am 01:54 undefined 71 21.7 55 12.8 57 57 undefined N/A 30.18 1022 N/A 0 0
2:54 am 02:54 undefined 70 21.1 56 13.3 61 61 undefined N/A 30.15 1021 N/A 0 0
3:54 am 03:54 undefined 68 20 57 13.9 68 68 undefined N/A 30.12 1020 N/A 0 0
4:54 am 04:54 undefined 66 18.9 58 14.4 75 75 undefined N/A 30.15 1021 N/A 0 0
5:54 am 05:54 undefined 66 18.9 58 14.4 75 75 undefined N/A 30.15 1021 N/A 0 0
6:54 am 06:54 undefined 66 18.9 58 14.4 75 75 undefined N/A 30.18 1022 N/A 0 0
7:54 am 07:54 undefined 68 20 58 14.4 70 70 undefined N/A 30.18 1022 N/A 0 0
8:54 am 08:54 undefined 73 22.8 59 15 62 62 undefined N/A 30.18 1022 N/A 0 0
9:54 am 09:54 undefined 74 23.3 60 15.6 62 62 undefined N/A 30.18 1022 N/A 0 0
10:54 am 10:54 undefined 76 24.4 58 14.4 54 54 undefined N/A 30.18 1022 N/A 0 0
11:54 am 11:54 undefined 78 25.6 56 13.3 47 47 undefined N/A 30.18 1022 N/A 0 0
12:54 pm 12:54 undefined 80 26.7 53 11.7 39 39 undefined N/A 30.18 1022 N/A 0 0
1:54 pm 13:54 undefined 78 25.6 52 11.1 40 40 undefined N/A 30.15 1021 N/A 0 0
2:54 pm 14:54 undefined 74 23.3 55 12.8 52 52 undefined N/A 30.18 1022 N/A 0 0
3:54 pm 15:54 undefined 75 23.9 57 13.9 54 54 undefined N/A 30.15 1021 N/A 0 0
4:54 pm 16:54 undefined 73 22.8 58 14.4 59 59 undefined N/A 30.15 1021 N/A 0 0
5:54 pm 17:54 undefined 74 23.3 58 14.4 57 57 undefined N/A 30.15 1021 N/A 0 0
6:54 pm 18:54 undefined 69 20.6 62 16.7 78 78 undefined N/A 30.15 1021 N/A 0 0
7:54 pm 19:54 undefined 66 18.9 61 16.1 84 84 undefined N/A 30.15 1021 N/A 0.07 1.778
8:54 pm 20:54 undefined 68 20 57 13.9 68 68 undefined N/A 30.15 1021 N/A 0.01 0.254
9:54 pm 21:54 undefined 70 21.1 57 13.9 64 64 undefined N/A 30.15 1021 N/A 0 0
10:54 pm 22:54 undefined 70 21.1 56 13.3 61 61 undefined N/A 30.12 1020 N/A 0 0
11:54 pm 23:54 undefined 69 20.6 56 13.3 63 63 undefined N/A 30.12 1020 N/A 0 0

Powered by AerisWeather